AirNav  
 
 375 users online  

2O8 Hinton Municipal Airport
Hinton, Oklahoma, USA

GOING TO HINTON?


FAA INFORMATION EFFECTIVE 29 MARCH 2018

Location

FAA Identifier: 2O8
Lat/Long: 35-30-26.0000N / 098-20-33.2000W
35-30.433333N / 098-20.553333W
35.5072222 / -98.3425556
(estimated)
Elevation: 1587 ft. / 483.7 m (surveyed)
Variation: 07E (1995)
From city: 2 miles NE of HINTON, OK
Time zone: UTC -5 (UTC -6 during Standard Time)
Zip code: 73047

Airport Operations

Airport use: Open to the public
Activation date: 05/1998
Control tower: no
ARTCC: FORT WORTH CENTER
FSS: MC ALESTER FLIGHT SERVICE STATION
NOTAMs facility: MLC (NOTAM-D service available)
Attendance: 0800-1700
Wind indicator: lighted
Segmented circle: yes
Lights: ACTVT MIRLS- CTAF.
Beacon: white-green (lighted land airport)
Operates sunset to sunrise.

Airport Communications

CTAF/UNICOM: 123.05
WX AWOS-3 at OJA (16 nm W): 118.575 (580-772-7020)
WX AWOS-3 at RQO (17 nm E): 118.475 (405-262-0087)
  • APCH/DEP SERVICE PROVIDED BY FORT WORTH ARTCC ON FREQS 128.4/269.375 (CLINTON-SHERMAN RCAG).

Nearby radio navigation aids

VOR radial/distance  VOR name  Freq  Var
IFIr214/24.3KINGFISHER VORTAC114.7009E
PWAr259/34.0WILEY POST VOR/DME113.4008E
IRWr277/36.9WILL ROGERS VORTAC114.1007E

Airport Services

Fuel available: 100LL
FUEL AVBL 24 HRS WITH AUTOMATED CREDIT CARD SYSTEM.
Parking: tiedowns
Airframe service: NONE
Powerplant service: NONE
Bottled oxygen: NONE
Bulk oxygen: NONE

Runway Information

Runway 17/35

Dimensions: 4001 x 60 ft. / 1220 x 18 m
Surface: asphalt, in good condition
Runway edge lights: medium intensity
RUNWAY 17  RUNWAY 35
Latitude: 35-30.762542N35-30.103118N
Longitude: 098-20.557277W098-20.550350W
Elevation: 1577.4 ft.1586.9 ft.
Traffic pattern: leftleft
Runway heading: 173 magnetic, 180 true353 magnetic, 360 true
Markings: nonprecision, in good conditionnonprecision, in good condition
Visual slope indicator: 2-light PAPI on left (3.00 degrees glide path)
PAPI OTS INDEFLY.
2-light PAPI on left (3.00 degrees glide path)
PAPI OTS INDEFLY.
Touchdown point: yes, no lightsyes, no lights

Airport Ownership and Management from official FAA records

Ownership: Publicly-owned
Owner: TOWN OF HINTON
PO BOX 159
HINTON, OK 73047
Phone 405-542-3253
Manager: DIEDRE WELLMAN
PO BOX 67, 611 E AIRPORT RD.
HINTON, OK 73047
Phone 405-542-3993
FBO/AMGR.

Airport Operational Statistics

Aircraft based on the field: 26
Single engine airplanes: 9
Multi engine airplanes: 1
Gliders airplanes: 16
    
Aircraft operations: avg 48/week *
55% transient general aviation
45% local general aviation
* for 12-month period ending 22 June 2015

Additional Remarks

GLIDER ACTIVITY ON & INVOF ARPT.

Instrument Procedures

NOTE: All procedures below are presented as PDF files. If you need a reader for these files, you should download the free Adobe Reader.

NOT FOR NAVIGATION. Please procure official charts for flight.
FAA instrument procedures published for use from 29 March 2018 at 0901Z to 26 April 2018 at 0900Z.

 
IAPs - Instrument Approach Procedures
RNAV (GPS) RWY 17   download (161KB)
RNAV (GPS) RWY 35   download (171KB)
NOTE: Special Take-Off Minimums/Departure Procedures apply   download (131KB)

Other nearby airports with instrument procedures:

KOJA - Thomas P Stafford Airport (16 nm W)
KRQO - El Reno Regional Airport (17 nm E)
KJWG - Watonga Regional Airport (22 nm N)
1O4 - Thomas Municipal Airport (23 nm NW)
KRCE - Clarence E Page Municipal Airport (25 nm E)
 
Loc | Ops | Rwys | IFR | FBO | Links
Com | Nav | Svcs | Stats | Notes

AirNav Hotels Sweepstakes
 
Area around 2O8 (Hinton Municipal Airport)
 
Road maps at: MapQuest Bing Google
 
Aerial photo
WARNING: Photo may not be current or correct
Aerial photo of 2O8 (Hinton Municipal Airport)
Photo by Jamie Szendrey

Do you have a better or more recent aerial photo of Hinton Municipal Airport that you would like to share? If so, please send us your photo.

 
Sectional chart

 
Airport distance calculator
Flying to Hinton Municipal Airport? Find the distance to fly.

From to 2O8

Sunrise and sunset
Times for 25-Apr-2018
 Local
(UTC-5)
 Zulu
(UTC)
Morning civil twilight06:2211:22
Sunrise06:4911:49
Sunset20:1301:13
Evening civil twilight20:4001:40

Current date and time
Zulu (UTC)  25-Apr-2018 08:43:54
Local (UTC-5)  25-Apr-2018 03:43:54
 
METAR
KOJA 
16nm W 
250815Z AUTO 34016G26KT 10SM OVC065 09/06 A3023 RMK AO2
KRQO 
17nm E 
250815Z AUTO 34019G31KT 10SM SCT020 OVC075 10/06 A3020 RMK AO2 T01000060
KJWG 
22nm N 
250815Z AUTO 33016G21KT 10SM -DZ SCT019 SCT037 OVC070 09/07 A3023 RMK AO2 T00900073
KRCE 
25nm E 
250815Z AUTO 34019G26KT 10SM FEW021 OVC075 10/06 A3019 RMK AO2
KCHK 
31nm SE 
250815Z AUTO 35020KT 10SM BKN022 OVC075 11/06 A3017 RMK AO2 T01120065
KHSD 
32nm E 
250820Z AUTO 33016G25KT 10SM OVC022 11/06 A3018 RMK A01
TAF
KOKC 
37nm E 
250520Z 2506/2606 02017KT P6SM OVC080 FM250800 36016KT 6SM -SHRA SCT015 OVC050 TEMPO 2508/2511 3SM -TSRA BR SCT007 OVC015CB FM251100 36013KT 5SM -RA OVC007 FM251600 33015G24KT P6SM BKN035
KCSM 
43nm W 
250520Z 2506/2606 36019KT 6SM -SHRA SCT020 OVC050 TEMPO 2506/2510 -TSRA BR FEW007 OVC020CB FM251000 36019KT 5SM -RA OVC007 FM251400 34016G23KT P6SM SCT030
NOTAMs
Click for the latest NOTAMs
NOTAMs are issued by the DoD/FAA and will open in a separate window not controlled by AirNav.

 

 
 

FBO, Fuel Providers, and Aircraft Ground Support

  
 Business Name 
 
 Contact 
 
 Services / Description 
 
Fuel Prices
 
Comments
  
Hinton Airport 405-542-3993 Airport management, Aviation fuel, Aircraft parking (ramp or tiedown), Hangars, Aircraft charters, Aircraft maintenance, Courtesy transportation, Public telephone, Internet access, ...

More info about Hinton Airport
Phillips 66
100LL
SS $3.55 
 Updated 19-Apr-2018
 
   8 read write
SS=Self service
Update Fuel Prices
 

Would you like to see your business listed on this page?

 If your business provides an interesting product or service to pilots, flight crews, aircraft, or users of the Hinton Municipal Airport, you should consider listing it here.  To start the listing process, click on the button below
 
Add a business
 

Other Pages about Hinton Municipal Airport

Update a link
 
Copyright © AirNav, LLC. All rights reserved. Privacy Policy  Contact